TSC766 CYYZ-MUSC

Flight info

Callsign TSC766
Flight time N/A
Altitude 40000
Route BETES3 AIRRA Q103 SLOJO/N0445F390 DCT EFFAY/N0450F400 Q83 JEVED Q97 DEBRL/N0449F390 Q97 EBAYY/N0454F400 Q93 MCLAW Y442 FUNDI UM335 ALVEK KIPUS5
Aircraft A333/H-SDE3GHIJ2J3J5M1RVWXY/LB2D1

Departure

Time N/A
Airport Toronto Pearson International Airport (CYYZ)

Arrival

Time 2026-04-12 22:56
Airport Abel Santamaria International Airport (MUSC)
Time Latitude Longitude Altitude Speed Heading
2026-04-12 20:08 41.76230 -80.05873 39971 ft 460 kts 190°
2026-04-12 20:08 41.69838 -80.05920 39979 ft 460 kts 190°
2026-04-12 20:09 41.63426 -80.05968 39978 ft 461 kts 190°
2026-04-12 20:09 41.57006 -80.06015 39980 ft 461 kts 190°
2026-04-12 20:10 41.50599 -80.06061 39984 ft 461 kts 190°
2026-04-12 20:10 41.44169 -80.06109 40004 ft 462 kts 190°
2026-04-12 20:11 41.37730 -80.06156 40008 ft 462 kts 189°
2026-04-12 20:11 41.31302 -80.06203 40008 ft 462 kts 189°
2026-04-12 20:12 41.24875 -80.06249 40013 ft 462 kts 189°
2026-04-12 20:12 41.18442 -80.06296 40019 ft 463 kts 189°
2026-04-12 20:13 41.11995 -80.06343 40007 ft 462 kts 189°
2026-04-12 20:14 41.02391 -80.06412 40018 ft 462 kts 189°
2026-04-12 20:14 40.95963 -80.06457 40024 ft 462 kts 189°
2026-04-12 20:15 40.89531 -80.06502 40021 ft 462 kts 189°
2026-04-12 20:15 40.83098 -80.06546 40042 ft 462 kts 189°
2026-04-12 20:15 40.79890 -80.06569 40217 ft 463 kts 189°
2026-04-12 20:16 40.76665 -80.06593 40524 ft 462 kts 189°
2026-04-12 20:16 40.73457 -80.06614 40908 ft 460 kts 189°
2026-04-12 20:16 40.70254 -80.06635 41167 ft 461 kts 189°
2026-04-12 20:17 40.63863 -80.06679 41222 ft 459 kts 189°
2026-04-12 20:17 40.57460 -80.06725 41210 ft 459 kts 189°
2026-04-12 20:18 40.51063 -80.06771 41204 ft 459 kts 189°
2026-04-12 20:18 40.44667 -80.06816 41199 ft 459 kts 189°
2026-04-12 20:19 40.38276 -80.06861 41211 ft 459 kts 189°
2026-04-12 20:19 40.31926 -80.06905 41212 ft 459 kts 189°
2026-04-12 20:20 40.25535 -80.06949 41214 ft 459 kts 189°
2026-04-12 20:20 40.19141 -80.06993 41236 ft 459 kts 189°
2026-04-12 20:21 40.12754 -80.07038 41239 ft 459 kts 189°
2026-04-12 20:21 40.06370 -80.07082 41233 ft 459 kts 189°
2026-04-12 20:22 39.99987 -80.07126 41233 ft 459 kts 188°
2026-04-12 20:22 39.93591 -80.07170 41231 ft 459 kts 188°
2026-04-12 20:23 39.87200 -80.07212 41233 ft 459 kts 188°
2026-04-12 20:23 39.80797 -80.07257 41220 ft 460 kts 188°
2026-04-12 20:24 39.74395 -80.07302 41226 ft 460 kts 188°
2026-04-12 20:24 39.67993 -80.07345 41230 ft 460 kts 188°
2026-04-12 20:25 39.61634 -80.07388 41229 ft 460 kts 188°
2026-04-12 20:25 39.55230 -80.07431 41227 ft 460 kts 188°
2026-04-12 20:26 39.48827 -80.07494 41231 ft 460 kts 189°
2026-04-12 20:26 39.42430 -80.07595 41228 ft 459 kts 189°
2026-04-12 20:27 39.36040 -80.07701 41212 ft 460 kts 188°
2026-04-12 20:27 39.29637 -80.07804 41221 ft 460 kts 188°
2026-04-12 20:28 39.23229 -80.07903 41221 ft 460 kts 188°
2026-04-12 20:28 39.16804 -80.08001 41221 ft 460 kts 188°
2026-04-12 20:29 39.10400 -80.08100 41226 ft 461 kts 188°
2026-04-12 20:29 39.04028 -80.08198 41249 ft 461 kts 188°
2026-04-12 20:30 38.97609 -80.08297 41251 ft 461 kts 188°
2026-04-12 20:30 38.91274 -80.08860 41242 ft 448 kts 200°
2026-04-12 20:31 38.85231 -80.10710 41259 ft 445 kts 204°
2026-04-12 20:31 38.79233 -80.12821 41266 ft 444 kts 205°
2026-04-12 20:32 38.73313 -80.14943 41273 ft 444 kts 204°
2026-04-12 20:32 38.67363 -80.17049 41262 ft 444 kts 204°
2026-04-12 20:33 38.61404 -80.19134 41283 ft 442 kts 204°
2026-04-12 20:33 38.55484 -80.21197 41285 ft 442 kts 204°
2026-04-12 20:34 38.49547 -80.23265 41299 ft 441 kts 204°
2026-04-12 20:34 38.43621 -80.25325 41304 ft 442 kts 204°
2026-04-12 20:35 38.37693 -80.27383 41304 ft 442 kts 204°
2026-04-12 20:35 38.31760 -80.29439 41314 ft 441 kts 204°
2026-04-12 20:36 38.25835 -80.31489 41319 ft 441 kts 204°
2026-04-12 20:36 38.19904 -80.33537 41309 ft 442 kts 204°
2026-04-12 20:37 38.13970 -80.35583 41306 ft 442 kts 204°
2026-04-12 20:37 38.08063 -80.37617 41306 ft 443 kts 204°
2026-04-12 20:38 38.02118 -80.39657 41311 ft 442 kts 204°
2026-04-12 20:38 37.96143 -80.41706 41322 ft 442 kts 204°
2026-04-12 20:39 37.90267 -80.43718 41321 ft 442 kts 204°
2026-04-12 20:39 37.84328 -80.45750 41321 ft 442 kts 204°
2026-04-12 20:40 37.78386 -80.47778 41317 ft 442 kts 204°
2026-04-12 20:40 37.72452 -80.49800 41317 ft 443 kts 204°
2026-04-12 20:41 37.66493 -80.51827 41315 ft 443 kts 204°
2026-04-12 20:41 37.61543 -80.53507 41317 ft 443 kts 204°
2026-04-12 20:42 37.55617 -80.55514 41309 ft 440 kts 203°
2026-04-12 20:42 37.49716 -80.57510 41317 ft 438 kts 203°
2026-04-12 20:43 37.43825 -80.59504 41310 ft 438 kts 203°
2026-04-12 20:43 37.37940 -80.61491 41309 ft 438 kts 203°
2026-04-12 20:44 37.32051 -80.63476 41310 ft 438 kts 203°
2026-04-12 20:44 37.26151 -80.65462 41330 ft 439 kts 203°
2026-04-12 20:45 37.20246 -80.67445 41324 ft 439 kts 203°
2026-04-12 20:45 37.14337 -80.69425 41318 ft 439 kts 203°
2026-04-12 20:46 37.08349 -80.71033 41316 ft 450 kts 192°
2026-04-12 20:46 37.02016 -80.71219 41317 ft 456 kts 187°
2026-04-12 20:47 36.95658 -80.71066 41317 ft 457 kts 186°
2026-04-12 20:47 36.89349 -80.70863 41344 ft 457 kts 186°
2026-04-12 20:48 36.82971 -80.70686 41353 ft 457 kts 186°
2026-04-12 20:48 36.76610 -80.70533 41359 ft 458 kts 186°
2026-04-12 20:49 36.70247 -80.70386 41354 ft 458 kts 186°
2026-04-12 20:49 36.63874 -80.70239 41348 ft 458 kts 186°
2026-04-12 20:50 36.57492 -80.70091 41337 ft 459 kts 186°
2026-04-12 20:50 36.51091 -80.69943 41314 ft 460 kts 186°
2026-04-12 20:51 36.44699 -80.69794 41315 ft 460 kts 186°
2026-04-12 20:51 36.38303 -80.69645 41294 ft 460 kts 186°
2026-04-12 20:52 36.31896 -80.69497 41314 ft 460 kts 186°
2026-04-12 20:52 36.25503 -80.69350 41313 ft 460 kts 186°
2026-04-12 20:53 36.19112 -80.69203 41314 ft 460 kts 186°
2026-04-12 20:53 36.12704 -80.69055 41290 ft 460 kts 185°
2026-04-12 20:54 36.06305 -80.68909 41302 ft 461 kts 185°
2026-04-12 20:54 35.99879 -80.68761 41301 ft 461 kts 185°
2026-04-12 20:55 35.93461 -80.68614 41308 ft 461 kts 185°
2026-04-12 20:55 35.87046 -80.68467 41312 ft 461 kts 185°
2026-04-12 20:56 35.80614 -80.68321 41331 ft 463 kts 185°
2026-04-12 20:56 35.74183 -80.68175 41325 ft 463 kts 185°
2026-04-12 20:57 35.67742 -80.68028 41333 ft 463 kts 185°
2026-04-12 20:57 35.61303 -80.67881 41343 ft 463 kts 185°
2026-04-12 20:58 35.54866 -80.67735 41353 ft 463 kts 185°
2026-04-12 20:58 35.48435 -80.67589 41356 ft 462 kts 185°
2026-04-12 20:59 35.42004 -80.67444 41358 ft 462 kts 185°
2026-04-12 20:59 35.35567 -80.67299 41357 ft 463 kts 185°
2026-04-12 21:00 35.29128 -80.67154 41326 ft 463 kts 185°
2026-04-12 21:00 35.22677 -80.67008 41351 ft 463 kts 185°
2026-04-12 21:01 35.16230 -80.66863 41348 ft 463 kts 185°
2026-04-12 21:01 35.09783 -80.66719 41345 ft 464 kts 185°
2026-04-12 21:02 35.03371 -80.66576 41343 ft 464 kts 185°
2026-04-12 21:02 34.96870 -80.66430 41336 ft 464 kts 185°
2026-04-12 21:03 34.90456 -80.66287 41342 ft 464 kts 185°
2026-04-12 21:03 34.83999 -80.66144 41334 ft 465 kts 185°
2026-04-12 21:04 34.77535 -80.66001 41337 ft 465 kts 185°
2026-04-12 21:04 34.71052 -80.65856 41333 ft 465 kts 185°
2026-04-12 21:05 34.64570 -80.65378 41332 ft 472 kts 174°
2026-04-12 21:05 34.58184 -80.63358 41339 ft 476 kts 167°
2026-04-12 21:06 34.51839 -80.60960 41343 ft 478 kts 166°
2026-04-12 21:06 34.45497 -80.58501 41343 ft 478 kts 166°
2026-04-12 21:07 34.39156 -80.56075 41339 ft 478 kts 166°
2026-04-12 21:07 34.32820 -80.53679 41356 ft 478 kts 166°
2026-04-12 21:08 34.26369 -80.51956 41339 ft 471 kts 182°
2026-04-12 21:08 34.23122 -80.52088 41340 ft 463 kts 194°
2026-04-12 21:08 34.19970 -80.52762 41341 ft 460 kts 198°
2026-04-12 21:09 34.13735 -80.54539 41341 ft 457 kts 201°
2026-04-12 21:09 34.07635 -80.56446 41339 ft 455 kts 201°
2026-04-12 21:10 34.01499 -80.58339 41340 ft 456 kts 200°
2026-04-12 21:10 33.95339 -80.60194 41340 ft 456 kts 200°
2026-04-12 21:11 33.89186 -80.62026 41339 ft 456 kts 200°
2026-04-12 21:11 33.83022 -80.63857 41327 ft 456 kts 200°
2026-04-12 21:12 33.76849 -80.65691 41332 ft 457 kts 200°
2026-04-12 21:12 33.70666 -80.67525 41348 ft 457 kts 200°
2026-04-12 21:13 33.64490 -80.69355 41347 ft 458 kts 200°
2026-04-12 21:13 33.58304 -80.71185 41337 ft 458 kts 200°
2026-04-12 21:14 33.52116 -80.73014 41342 ft 459 kts 200°
2026-04-12 21:14 33.45908 -80.74842 41340 ft 459 kts 200°
2026-04-12 21:15 33.39710 -80.76663 41340 ft 459 kts 200°
2026-04-12 21:15 33.33500 -80.78486 41335 ft 459 kts 199°
2026-04-12 21:16 33.27303 -80.80303 41348 ft 460 kts 199°
2026-04-12 21:16 33.21076 -80.82126 41352 ft 461 kts 199°
2026-04-12 21:17 33.14850 -80.83945 41356 ft 461 kts 199°
2026-04-12 21:17 33.08627 -80.85760 41363 ft 461 kts 199°
2026-04-12 21:18 33.02396 -80.87576 41370 ft 461 kts 199°
2026-04-12 21:18 32.96173 -80.89387 41370 ft 461 kts 199°
2026-04-12 21:19 32.89943 -80.91197 41353 ft 460 kts 199°
2026-04-12 21:19 32.83741 -80.92995 41364 ft 458 kts 199°
2026-04-12 21:20 32.77556 -80.94787 41363 ft 458 kts 199°
2026-04-12 21:20 32.71365 -80.96580 41366 ft 458 kts 199°
2026-04-12 21:21 32.65161 -80.98372 41366 ft 458 kts 199°
2026-04-12 21:21 32.58962 -81.00161 41369 ft 458 kts 199°
2026-04-12 21:22 32.52704 -81.01697 41370 ft 465 kts 189°
2026-04-12 21:22 32.46218 -81.02076 41372 ft 468 kts 185°
2026-04-12 21:23 32.39680 -81.02193 41380 ft 469 kts 185°
2026-04-12 21:23 32.33158 -81.02267 41373 ft 469 kts 185°
2026-04-12 21:24 32.26619 -81.02362 41372 ft 469 kts 185°
2026-04-12 21:24 32.20094 -81.02473 41372 ft 469 kts 185°
2026-04-12 21:25 32.13600 -81.02588 41369 ft 470 kts 185°
2026-04-12 21:25 32.07069 -81.02705 41350 ft 469 kts 185°
2026-04-12 21:26 32.00542 -81.02821 41347 ft 470 kts 185°
2026-04-12 21:26 31.91782 -81.03040 41352 ft 471 kts 185°
2026-04-12 21:27 31.85236 -81.03227 41355 ft 471 kts 185°
2026-04-12 21:27 31.78738 -81.03409 41360 ft 470 kts 185°
2026-04-12 21:28 31.72186 -81.03589 41364 ft 471 kts 185°
2026-04-12 21:28 31.65645 -81.03768 41371 ft 471 kts 185°
2026-04-12 21:29 31.59086 -81.03948 41371 ft 471 kts 185°
2026-04-12 21:29 31.52557 -81.04288 41369 ft 470 kts 187°
2026-04-12 21:30 31.46026 -81.04736 41363 ft 470 kts 187°
2026-04-12 21:30 31.39500 -81.05182 41367 ft 470 kts 187°
2026-04-12 21:31 31.32981 -81.05611 41365 ft 470 kts 187°
2026-04-12 21:31 31.26446 -81.06030 41364 ft 470 kts 187°
2026-04-12 21:32 31.19894 -81.06295 41354 ft 471 kts 185°
2026-04-12 21:32 31.13336 -81.06405 41364 ft 471 kts 184°
2026-04-12 21:33 31.06788 -81.06506 41364 ft 471 kts 184°
2026-04-12 21:33 31.00230 -81.06628 41365 ft 471 kts 184°
2026-04-12 21:34 30.93682 -81.06762 41362 ft 471 kts 184°
2026-04-12 21:34 30.87126 -81.06899 41360 ft 471 kts 184°
2026-04-12 21:35 30.80612 -81.07034 41363 ft 471 kts 184°
2026-04-12 21:35 30.74038 -81.07169 41360 ft 471 kts 184°
2026-04-12 21:36 30.67484 -81.07303 41358 ft 471 kts 184°
2026-04-12 21:36 30.60942 -81.07472 41357 ft 470 kts 186°
2026-04-12 21:37 30.54409 -81.07840 41358 ft 469 kts 187°
2026-04-12 21:37 30.47887 -81.08267 41360 ft 469 kts 187°
2026-04-12 21:38 30.41366 -81.08681 41361 ft 469 kts 186°
2026-04-12 21:38 30.34842 -81.09079 41362 ft 469 kts 186°
2026-04-12 21:39 30.28322 -81.09469 41361 ft 469 kts 186°
2026-04-12 21:39 30.21801 -81.09859 41358 ft 469 kts 186°
2026-04-12 21:40 30.15276 -81.10249 41360 ft 469 kts 186°
2026-04-12 21:40 30.08761 -81.10638 41352 ft 469 kts 186°
2026-04-12 21:41 30.02242 -81.11028 41362 ft 469 kts 186°
2026-04-12 21:41 29.95722 -81.11417 41364 ft 469 kts 186°
2026-04-12 21:42 29.89205 -81.11805 41364 ft 469 kts 186°
2026-04-12 21:42 29.82697 -81.12192 41363 ft 469 kts 186°
2026-04-12 21:43 29.76171 -81.12362 41364 ft 469 kts 184°
2026-04-12 21:43 29.69638 -81.12359 41364 ft 469 kts 183°
2026-04-12 21:44 29.63100 -81.12352 41362 ft 469 kts 183°
2026-04-12 21:44 29.56581 -81.12386 41362 ft 469 kts 184°
2026-04-12 21:45 29.50057 -81.12593 41358 ft 468 kts 186°
2026-04-12 21:45 29.43565 -81.12867 41360 ft 467 kts 186°
2026-04-12 21:46 29.37057 -81.13133 41349 ft 467 kts 186°
2026-04-12 21:46 29.30549 -81.13068 41348 ft 471 kts 174°
2026-04-12 21:47 29.24205 -81.11060 41345 ft 475 kts 162°
2026-04-12 21:47 29.18028 -81.08388 41349 ft 476 kts 160°
2026-04-12 21:48 29.11867 -81.05596 41342 ft 476 kts 160°
2026-04-12 21:48 29.05707 -81.02835 41350 ft 476 kts 160°
2026-04-12 21:49 28.99542 -81.00109 41344 ft 475 kts 160°
2026-04-12 21:49 28.93403 -80.97411 41341 ft 475 kts 161°
2026-04-12 21:50 28.87235 -80.94705 41346 ft 475 kts 161°
2026-04-12 21:50 28.81020 -80.91981 41328 ft 476 kts 161°
2026-04-12 21:51 28.74838 -80.89274 41326 ft 476 kts 161°
2026-04-12 21:51 28.68650 -80.86583 41316 ft 476 kts 161°
2026-04-12 21:52 28.62431 -80.84124 41327 ft 476 kts 164°
2026-04-12 21:52 28.56137 -80.81751 41338 ft 476 kts 164°
2026-04-12 21:53 28.49866 -80.79381 41338 ft 476 kts 164°
2026-04-12 21:53 28.43580 -80.76986 41339 ft 476 kts 163°
2026-04-12 21:54 28.37299 -80.74586 41329 ft 476 kts 163°
2026-04-12 21:54 28.31031 -80.72192 41321 ft 476 kts 164°
2026-04-12 21:55 28.24738 -80.69793 41320 ft 476 kts 164°
2026-04-12 21:55 28.18459 -80.67402 41315 ft 476 kts 164°
2026-04-12 21:56 28.12182 -80.65016 41294 ft 476 kts 164°
2026-04-12 21:56 28.05943 -80.62647 41294 ft 476 kts 164°
2026-04-12 21:57 27.99670 -80.60268 41313 ft 476 kts 165°
2026-04-12 21:57 27.93376 -80.57884 41314 ft 477 kts 165°
2026-04-12 21:58 27.87090 -80.55506 41310 ft 477 kts 165°
2026-04-12 21:58 27.80800 -80.53129 41317 ft 477 kts 164°
2026-04-12 21:59 27.74459 -80.50960 41307 ft 472 kts 174°
2026-04-12 21:59 27.71217 -80.50592 41296 ft 465 kts 185°
2026-04-12 21:59 27.68011 -80.50763 41302 ft 462 kts 190°
2026-04-12 22:00 27.61606 -80.51532 41303 ft 461 kts 193°
2026-04-12 22:00 27.55264 -80.52472 41306 ft 461 kts 193°
2026-04-12 22:01 27.48902 -80.53404 41296 ft 461 kts 193°
2026-04-12 22:01 27.42546 -80.54300 41295 ft 461 kts 193°
2026-04-12 22:02 27.36197 -80.55178 41300 ft 461 kts 193°
2026-04-12 22:02 27.29829 -80.56055 41297 ft 461 kts 193°
2026-04-12 22:03 27.23457 -80.56933 41289 ft 461 kts 193°
2026-04-12 22:03 27.17078 -80.57813 41290 ft 461 kts 193°
2026-04-12 22:04 27.10702 -80.58691 41288 ft 461 kts 193°
2026-04-12 22:04 27.04325 -80.59568 41290 ft 461 kts 193°
2026-04-12 22:05 26.97957 -80.60443 41284 ft 461 kts 193°
2026-04-12 22:05 26.91621 -80.61313 41279 ft 461 kts 193°
2026-04-12 22:06 26.85251 -80.62186 41265 ft 461 kts 193°
2026-04-12 22:06 26.78874 -80.63059 41273 ft 462 kts 193°
2026-04-12 22:07 26.72487 -80.63933 41273 ft 462 kts 193°
2026-04-12 22:07 26.66092 -80.64806 41266 ft 462 kts 193°
2026-04-12 22:08 26.59703 -80.65678 41265 ft 463 kts 193°
2026-04-12 22:08 26.53316 -80.66549 41259 ft 463 kts 193°
2026-04-12 22:09 26.46919 -80.67420 41268 ft 463 kts 193°
2026-04-12 22:09 26.40495 -80.68296 41258 ft 466 kts 193°
2026-04-12 22:10 26.34062 -80.69167 41259 ft 464 kts 193°
2026-04-12 22:10 26.27664 -80.70034 41254 ft 463 kts 193°
2026-04-12 22:11 26.22302 -80.70761 41250 ft 464 kts 193°
2026-04-12 22:11 26.15936 -80.71624 41254 ft 464 kts 193°
2026-04-12 22:12 26.09518 -80.72493 41252 ft 464 kts 193°
2026-04-12 22:12 26.03101 -80.73360 41250 ft 464 kts 193°
2026-04-12 22:13 25.96692 -80.74225 41248 ft 464 kts 193°
2026-04-12 22:13 25.90279 -80.75089 41246 ft 464 kts 193°
2026-04-12 22:14 25.83863 -80.75954 41230 ft 464 kts 193°
2026-04-12 22:14 25.77490 -80.76963 41231 ft 461 kts 197°
2026-04-12 22:15 25.71212 -80.78385 41228 ft 460 kts 199°
2026-04-12 22:15 25.65003 -80.79876 41222 ft 459 kts 199°
2026-04-12 22:16 25.58719 -80.81396 41222 ft 459 kts 199°
2026-04-12 22:16 25.52489 -80.82893 41220 ft 459 kts 199°
2026-04-12 22:17 25.46238 -80.84387 41215 ft 459 kts 199°
2026-04-12 22:17 25.39990 -80.85877 41212 ft 459 kts 199°
2026-04-12 22:18 25.33737 -80.87367 41206 ft 459 kts 199°
2026-04-12 22:18 25.27507 -80.88851 41216 ft 458 kts 199°
2026-04-12 22:19 25.21268 -80.90334 41210 ft 458 kts 199°
2026-04-12 22:19 25.15072 -80.91807 41206 ft 458 kts 199°
2026-04-12 22:20 25.08827 -80.93289 41203 ft 458 kts 199°
2026-04-12 22:20 25.02628 -80.94759 41199 ft 457 kts 199°
2026-04-12 22:21 24.96392 -80.96235 41208 ft 455 kts 199°
2026-04-12 22:21 24.90198 -80.97701 41212 ft 455 kts 199°
2026-04-12 22:22 24.84011 -80.99165 41209 ft 455 kts 199°
2026-04-12 22:22 24.77808 -81.00596 41207 ft 458 kts 195°
2026-04-12 22:23 24.71411 -81.01149 41205 ft 462 kts 188°
2026-04-12 22:23 24.64968 -81.01408 41207 ft 462 kts 187°
2026-04-12 22:24 24.58545 -81.01610 41208 ft 462 kts 187°
2026-04-12 22:24 24.52103 -81.01702 41210 ft 464 kts 185°
2026-04-12 22:25 24.45684 -81.01626 41205 ft 464 kts 185°
2026-04-12 22:25 24.39222 -81.01536 41199 ft 464 kts 185°
2026-04-12 22:26 24.32757 -81.01467 41196 ft 464 kts 185°
2026-04-12 22:26 24.26310 -81.01412 41198 ft 464 kts 185°
2026-04-12 22:27 24.19851 -81.01359 41192 ft 464 kts 185°
2026-04-12 22:27 24.13382 -81.01306 41189 ft 464 kts 185°
2026-04-12 22:28 24.06932 -81.01252 41189 ft 463 kts 185°
2026-04-12 22:28 24.00530 -81.01197 41192 ft 463 kts 185°
2026-04-12 22:29 23.94087 -81.00999 41184 ft 464 kts 183°
2026-04-12 22:29 23.87614 -81.00701 41185 ft 464 kts 183°
2026-04-12 22:30 23.81160 -81.00404 40827 ft 463 kts 183°
2026-04-12 22:30 23.77952 -81.00261 40397 ft 459 kts 184°
2026-04-12 22:30 23.74272 -81.00099 39611 ft 454 kts 184°
2026-04-12 22:31 23.71616 -80.99986 38811 ft 455 kts 184°
2026-04-12 22:31 23.68438 -80.99855 37641 ft 458 kts 184°
2026-04-12 22:31 23.65252 -80.99725 36579 ft 461 kts 183°
2026-04-12 22:31 23.62031 -80.99595 35789 ft 465 kts 183°
2026-04-12 22:32 23.58789 -80.99461 35188 ft 467 kts 182°
2026-04-12 22:32 23.55538 -80.99324 34601 ft 467 kts 182°
2026-04-12 22:32 23.52287 -80.99187 34320 ft 470 kts 182°
2026-04-12 22:32 23.49001 -80.99049 34024 ft 473 kts 182°
2026-04-12 22:33 23.45711 -80.98910 33298 ft 474 kts 182°
2026-04-12 22:33 23.42400 -80.98772 32449 ft 478 kts 181°
2026-04-12 22:33 23.39062 -80.98632 31587 ft 482 kts 180°
2026-04-12 22:33 23.35706 -80.98492 30708 ft 485 kts 180°
2026-04-12 22:34 23.32326 -80.98350 29853 ft 486 kts 179°
2026-04-12 22:34 23.28969 -80.98208 29186 ft 480 kts 179°
2026-04-12 22:34 23.25642 -80.98066 28502 ft 476 kts 179°
2026-04-12 22:34 23.22355 -80.97926 27777 ft 472 kts 179°
2026-04-12 22:35 23.19091 -80.97787 27110 ft 468 kts 179°
2026-04-12 22:35 23.15852 -80.97649 26433 ft 463 kts 179°
2026-04-12 22:35 23.12639 -80.97514 25767 ft 460 kts 178°
2026-04-12 22:35 23.09453 -80.97380 25105 ft 456 kts 178°
2026-04-12 22:36 23.06302 -80.97243 24449 ft 453 kts 177°
2026-04-12 22:36 23.03203 -80.96730 23777 ft 449 kts 162°
2026-04-12 22:36 23.00416 -80.95300 23032 ft 441 kts 143°
2026-04-12 22:36 22.98162 -80.93117 22407 ft 430 kts 130°
2026-04-12 22:37 22.96169 -80.90736 21780 ft 422 kts 128°
2026-04-12 22:37 22.94242 -80.88414 21155 ft 417 kts 129°
2026-04-12 22:37 22.92272 -80.86086 20520 ft 411 kts 129°
2026-04-12 22:37 22.90334 -80.83833 19911 ft 405 kts 130°
2026-04-12 22:38 22.88437 -80.81650 19311 ft 400 kts 130°
2026-04-12 22:38 22.86515 -80.79451 18700 ft 394 kts 130°
2026-04-12 22:38 22.84659 -80.77337 18061 ft 389 kts 130°
2026-04-12 22:38 22.82811 -80.75235 17443 ft 382 kts 131°
2026-04-12 22:39 22.80989 -80.73167 16856 ft 376 kts 131°
2026-04-12 22:39 22.79201 -80.71139 16293 ft 370 kts 131°
2026-04-12 22:39 22.77438 -80.69140 15712 ft 364 kts 131°
2026-04-12 22:40 22.73987 -80.65231 14589 ft 355 kts 131°
2026-04-12 22:40 22.72291 -80.63312 14032 ft 350 kts 132°
2026-04-12 22:40 22.70615 -80.61416 13442 ft 346 kts 131°
2026-04-12 22:40 22.68965 -80.59552 12879 ft 341 kts 131°
2026-04-12 22:41 22.67335 -80.57712 12343 ft 336 kts 131°
2026-04-12 22:41 22.65727 -80.55894 11807 ft 332 kts 131°
2026-04-12 22:41 22.64137 -80.54098 11275 ft 329 kts 131°
2026-04-12 22:41 22.62563 -80.52320 10745 ft 326 kts 131°
2026-04-12 22:42 22.61003 -80.50559 10276 ft 320 kts 131°
2026-04-12 22:42 22.59494 -80.48859 10028 ft 304 kts 131°
2026-04-12 22:42 22.58077 -80.47265 9737 ft 283 kts 131°
2026-04-12 22:42 22.56768 -80.45791 9433 ft 262 kts 131°
2026-04-12 22:43 22.55549 -80.44420 9228 ft 243 kts 130°
2026-04-12 22:43 22.54430 -80.43163 9059 ft 222 kts 130°
2026-04-12 22:43 22.53400 -80.42003 8805 ft 208 kts 129°
2026-04-12 22:43 22.52417 -80.40894 8504 ft 199 kts 129°
2026-04-12 22:44 22.51494 -80.39856 8318 ft 185 kts 127°
2026-04-12 22:44 22.50621 -80.38870 8015 ft 180 kts 129°
2026-04-12 22:44 22.49759 -80.37895 7702 ft 179 kts 127°
2026-04-12 22:44 22.48911 -80.36939 7445 ft 173 kts 127°
2026-04-12 22:45 22.48085 -80.36008 7153 ft 170 kts 126°
2026-04-12 22:45 22.47269 -80.35086 6824 ft 171 kts 129°
2026-04-12 22:45 22.46444 -80.34155 6477 ft 171 kts 129°
2026-04-12 22:45 22.45622 -80.33232 6166 ft 169 kts 126°
2026-04-12 22:46 22.44821 -80.32335 5882 ft 164 kts 127°
2026-04-12 22:46 22.44015 -80.31425 5322 ft 172 kts 126°
2026-04-12 22:46 22.43166 -80.30459 4763 ft 179 kts 125°
2026-04-12 22:46 22.42418 -80.29445 4411 ft 166 kts 114°
2026-04-12 22:47 22.41953 -80.28358 4045 ft 156 kts 101°
2026-04-12 22:47 22.41784 -80.27224 3650 ft 151 kts 86°
2026-04-12 22:47 22.41890 -80.26120 3263 ft 147 kts 75°
2026-04-12 22:47 22.42125 -80.25048 2910 ft 144 kts 72°
2026-04-12 22:48 22.42375 -80.23998 2798 ft 149 kts 72°
2026-04-12 22:48 22.42629 -80.22929 2666 ft 142 kts 72°
2026-04-12 22:48 22.42857 -80.21947 2523 ft 128 kts 72°
2026-04-12 22:48 22.43063 -80.21055 2369 ft 117 kts 72°
2026-04-12 22:49 22.43255 -80.20230 2240 ft 113 kts 72°
2026-04-12 22:49 22.43446 -80.19409 2117 ft 112 kts 72°
2026-04-12 22:49 22.43634 -80.18599 2019 ft 112 kts 72°
2026-04-12 22:49 22.43828 -80.17765 2013 ft 117 kts 72°
2026-04-12 22:50 22.44033 -80.16886 1997 ft 122 kts 74°
2026-04-12 22:50 22.44240 -80.15989 2003 ft 123 kts 73°
2026-04-12 22:50 22.44441 -80.15115 1987 ft 117 kts 71°
2026-04-12 22:50 22.44636 -80.14269 2010 ft 115 kts 72°
2026-04-12 22:51 22.44822 -80.13462 2009 ft 113 kts 72°
2026-04-12 22:51 22.45010 -80.12655 1983 ft 115 kts 72°
2026-04-12 22:51 22.45206 -80.11812 2000 ft 116 kts 72°
2026-04-12 22:51 22.45402 -80.10966 1991 ft 116 kts 72°
2026-04-12 22:52 22.45597 -80.10118 1991 ft 116 kts 72°
2026-04-12 22:52 22.45792 -80.09276 2003 ft 115 kts 73°
2026-04-12 22:52 22.45985 -80.08442 1992 ft 115 kts 74°
2026-04-12 22:52 22.46179 -80.07601 2007 ft 116 kts 74°
2026-04-12 22:53 22.46374 -80.06758 1993 ft 116 kts 74°
2026-04-12 22:53 22.46567 -80.05910 1993 ft 115 kts 71°
2026-04-12 22:53 22.46763 -80.05066 1997 ft 117 kts 74°
2026-04-12 22:53 22.46959 -80.04210 1974 ft 118 kts 73°
2026-04-12 22:54 22.47159 -80.03346 1845 ft 120 kts 74°
2026-04-12 22:54 22.47356 -80.02484 1661 ft 117 kts 73°
2026-04-12 22:54 22.47551 -80.01636 1479 ft 116 kts 75°
2026-04-12 22:54 22.47746 -80.00790 1349 ft 116 kts 75°
2026-04-12 22:55 22.47938 -79.99942 1202 ft 116 kts 71°
2026-04-12 22:55 22.48124 -79.99078 1006 ft 120 kts 74°
2026-04-12 22:55 22.48314 -79.98210 877 ft 117 kts 73°
2026-04-12 22:55 22.48527 -79.97377 656 ft 115 kts 75°
2026-04-12 22:56 22.48730 -79.96541 539 ft 114 kts 72°
2026-04-12 22:56 22.48916 -79.95698 388 ft 116 kts 75°
2026-04-12 22:56 22.49087 -79.94945 351 ft 79 kts 76°
2026-04-12 22:56 22.49178 -79.94548 345 ft 43 kts 76°
2026-04-12 22:57 22.49265 -79.94168 346 ft 65 kts 75°
2026-04-12 22:57 22.49342 -79.93839 353 ft 64 kts 75°
2026-04-12 22:57 22.49438 -79.93422 337 ft 35 kts 76°
2026-04-12 22:57 22.49506 -79.93296 334 ft 9 kts 28°
2026-04-12 22:58 22.49561 -79.93262 336 ft 7 kts 31°
2026-04-12 22:58 22.49598 -79.93238 333 ft 6 kts 31°
2026-04-12 22:58 22.49636 -79.93226 335 ft 4 kts
2026-04-12 22:58 22.49658 -79.93225 333 ft 3 kts 20°
2026-04-12 22:59 22.49666 -79.93218 335 ft 3 kts 38°
2026-04-12 22:59 22.49670 -79.93209 337 ft 1 kts 65°
2026-04-12 22:59 22.49672 -79.93203 335 ft 4 kts 71°
2026-04-12 22:59 22.49674 -79.93194 335 ft 0 kts 71°
2026-04-12 23:01 22.49009 -79.94288 353 ft 0 kts 178°
2026-04-12 23:16 22.43764 -80.18039 2020 ft 113 kts 72°
2026-04-12 23:16 22.47939 -79.99938 1198 ft 116 kts 71°
2026-04-12 23:16 22.48124 -79.99076 1004 ft 120 kts 74°
2026-04-12 23:16 22.48316 -79.98204 873 ft 116 kts 73°
2026-04-12 23:17 22.48528 -79.97372 657 ft 115 kts 75°
2026-04-12 23:17 22.48731 -79.96538 539 ft 114 kts 72°
2026-04-12 23:17 22.48916 -79.95694 387 ft 116 kts 75°
2026-04-12 23:17 22.49088 -79.94942 349 ft 79 kts 76°
2026-04-12 23:18 22.49144 -79.94696 345 ft 53 kts 76°